Weather History for CAAW - December, 2013

Change the Weather History Date:

Sunday, December 1, 2013

  Actual Average Record
Temperature  
Mean Temperature 28 °F -  
Max Temperature 37 °F - - ()
Min Temperature 19 °F - - ()
Degree Days  
Heating Degree Days 38    
Moisture  
Dew Point 25 °F    
Average Humidity 79    
Maximum Humidity 97    
Minimum Humidity 52    
Precipitation  
Precipitation 0.00 in - - ()
Sea Level Pressure  
Sea Level Pressure 30.43 in    
Wind  
Wind Speed 5 mph ()    
Max Wind Speed 9 mph    
Max Gust Speed -    
T = Trace of Precipitation, MM = Missing Value Source: Averaged Metar Reports

Daily Weather History Graph

Daily Weather History Graph

Search for Another Location

Airport or City:

Trip Planner

Search our weather history database for the weather conditions in past years. The results will help you decide how hot, cold, wet, or windy it might be!

Date:

Astronomy

Dec. 01, 2013 Rise Set
Actual Time 7:31 AM AST 4:35 PM AST
Civil Twilight 6:58 AM AST 5:08 PM AST
Nautical Twilight 6:21 AM AST 5:44 PM AST
Astronomical Twilight 5:46 AM AST 6:19 PM AST
Moon 5:40 AM AST (12/1) 3:44 PM AST (12/1)
Length of Visible Light 10h 09m
Length of Day
9h 04m
Waning Crescent, 3% of the Moon is Illuminated
Dec 1
Waning Crescent
Dec 2
New
Dec 9
First Quarter
Dec 17
Full
Dec 25
Last Quarter

Hourly Weather History & Observations

Time (AST) Temp. Windchill Dew Point Humidity Pressure Visibility Wind Dir Wind Speed Gust Speed Precip Events Conditions
12:00 AM 19.8 °F 14.7 °F 11.1 °F 69% 30.63 in - NNE 3.5 mph - N/A   Unknown
1:00 AM 19.9 °F 14.9 °F 11.7 °F 70% 30.61 in - NE 3.5 mph - N/A   Unknown
2:00 AM 21 °F - 14 °F 63% 30.60 in - NE 3.5 mph - -  
2:00 AM 20.7 °F 15.8 °F 14.0 °F 75% 30.60 in - NE 3.5 mph - N/A   Unknown
3:00 AM 21.4 °F 15.1 °F 14.2 °F 74% 30.58 in - ENE 4.6 mph - N/A   Unknown
4:00 AM 21.6 °F 16.8 °F 15.3 °F 77% 30.56 in - NE 3.5 mph - N/A   Unknown
5:00 AM 21.9 °F 13.4 °F 14.5 °F 73% 30.53 in - East 6.9 mph - N/A   Unknown
6:00 AM 24.8 °F 17.9 °F 18.5 °F 77% 30.51 in - East 5.8 mph - N/A   Unknown
7:00 AM 30.4 °F 22.2 °F 22.1 °F 71% 30.49 in - SSE 9.2 mph - N/A   Unknown
8:00 AM 32 °F - 21 °F 52% 30.48 in - SSE 8.1 mph - -  
8:00 AM 31.6 °F 24.4 °F 21.2 °F 65% 30.48 in - South 8.1 mph - N/A   Unknown
9:00 AM 32.5 °F 25.5 °F 22.5 °F 66% 30.49 in - South 8.1 mph - N/A   Unknown
10:00 AM 33.8 °F 28.6 °F 24.4 °F 69% 30.48 in - South 5.8 mph - N/A   Unknown
11:00 AM 34.9 °F 29.0 °F 25.5 °F 69% 30.45 in - South 6.9 mph - N/A   Unknown
12:00 PM 36.0 °F - 27.0 °F 70% 30.42 in - SSW 2.3 mph - N/A   Unknown
1:00 PM 36.7 °F - 27.9 °F 70% 30.39 in - SSE 2.3 mph - N/A   Unknown
2:00 PM 36 °F - 31 °F 73% 30.37 in - South 1.2 mph - -  
2:00 PM 35.6 °F - 30.6 °F 82% 30.37 in - SSE 1.2 mph - N/A   Unknown
3:00 PM 34.0 °F 31.0 °F 31.5 °F 90% 30.35 in - North 3.5 mph - N/A   Unknown
4:00 PM 33.3 °F 28.9 °F 31.8 °F 94% 30.34 in - ENE 4.6 mph - N/A   Unknown
5:00 PM 32.4 °F 26.0 °F 31.5 °F 96% 30.32 in - NE 6.9 mph - N/A   Unknown
6:00 PM 32.7 °F 26.4 °F 31.8 °F 96% 30.30 in - ENE 6.9 mph - N/A   Unknown
7:00 PM 33.6 °F 28.4 °F 32.7 °F 96% 30.29 in - NE 5.8 mph - N/A   Unknown
8:00 PM 34 °F - 33 °F 96% 30.28 in - ENE 8.1 mph - -  
8:00 PM 34.2 °F 27.5 °F 33.3 °F 97% 30.28 in - ENE 8.1 mph - N/A   Unknown
9:00 PM 35.8 °F 29.4 °F 35.1 °F 97% 30.26 in - ENE 8.1 mph - N/A   Unknown
10:00 PM 36.5 °F 31.0 °F 35.8 °F 97% 30.25 in - NE 6.9 mph - N/A   Unknown
11:00 PM 37.0 °F 31.6 °F 36.3 °F 97% 30.24 in - NE 6.9 mph - N/A   Unknown